Regional Weather Roundup
Issued by NWS

Home | Current Version | Previous Version | Graphics & Text | Print | Product List | Glossary On
Versions: 1 2 3 4 5 6 7 8 9 10 11 12 13 14 15 16 17 18 19 20 21 22 23 24 25 26 27 28 29 30 31 32 33 34 35 36 37 38 39 40 41 42 43 44 45 46 47 48 49 50
000
ASUS45 KPSR 200310
RWRAZ

ARIZONA REGIONAL HOURLY WEATHER ROUNDUP
NATIONAL WEATHER SERVICE PHOENIX AZ
800 PM MST TUE AUG 19 2014

NOTE: FAIR INDICATES FEW OR NO CLOUDS BELOW 12,000 FEET WITH NO
SIGNIFICANT WEATHER AND/OR OBSTRUCTIONS TO VISIBILITY.

AZZ001>003-036-200400-
NORTHWEST ARIZONA

CITY           SKY/WX    TMP DP  RH WIND       PRES   REMARKS
BULLHEAD CITY  CLEAR     79  66  65 NW6       29.71S
KINGMAN        PTCLDY    69  56  62 SE15      29.88F
$$

AZZ004>008-015-016-018-200400-
NORTH CENTRAL ARIZONA

CITY           SKY/WX    TMP DP  RH WIND       PRES   REMARKS
GRAND CANYON   CLOUDY    55  50  83 VRB6      30.10F
WILLIAMS       CLOUDY    54  50  87 CALM      30.21R
PRESCOTT       CLOUDY    58  54  86 S9        30.06F
FLAGSTAFF      CLOUDY    54  50  86 CALM      30.18R
PAYSON         CLOUDY    63  57  82 E6        30.09S
PAGE           PTCLDY    71  59  65 SE5       29.93S
$$

AZZ009>014-017-200400-
NORTHEAST ARIZONA

CITY           SKY/WX    TMP DP  RH WIND       PRES   REMARKS
WINSLOW        CLEAR     66  59  78 SW8       30.02R
SAINT JOHNS    CLOUDY    65  52  62 SW9       30.08R
WINDOW ROCK    CLOUDY    63  52  67 SW7       30.12S
SHOW LOW       MOCLDY    55  52  88 S12       30.16R
$$

AZZ023-200400-
GREATER PHOENIX AREA

CITY           SKY/WX    TMP DP  RH WIND       PRES   REMARKS
PHOENIX        MOCLDY    83  59  44 NW16      29.82R
BUCKEYE          N/A     79  64  61 E22G28    29.78F
GLENDALE       MOCLDY    73  64  73 NE13G25   29.82F
LUKE AFB       NOT AVBL
DEER VALLEY    CLOUDY    78  62  57 SW12      29.84R
SCOTTSDALE     MOCLDY    81  61  50 W14G22    29.86R
MESA-FALCON    MOCLDY    81  59  47 N14       29.80F
MESA-GATEWAY   MOCLDY    84  63  48 NE13      29.84R
CHANDLER       MOCLDY    84  63  48 N15       29.81R
$$

AZZ027-028-200400-
SOUTHWEST MARICOPA COUNTY AND PINAL COUNTY

CITY           SKY/WX    TMP DP  RH WIND       PRES   REMARKS
CASA GRANDE    MOCLDY    82  64  54 SE8       29.85R
GILA BEND      PTCLDY    88  63  42 N12G25    29.77R
$$

AZZ503-504-507>509-200400-
SOUTHEAST ARIZONA

CITY           SKY/WX    TMP DP  RH WIND       PRES   REMARKS
TUCSON         MOCLDY    75  66  73 SE9       29.94R
RYAN FIELD       N/A     79  66  65 SE12      29.91R
NOGALES        CLOUDY    70  61  73 S7        30.02R
SIERRA VISTA   CLOUDY    64  63  94 N5        30.08S
DOUGLAS        CLOUDY    65  63  93 CALM      30.05S
SAFFORD        MOCLDY    67  64  90 W3        29.96S
$$

AZZ020-021-025-026-031-200400-
SOUTHWEST ARIZONA

CITY           SKY/WX    TMP DP  RH WIND       PRES   REMARKS
YUMA           PTCLDY    95  56  26 SE15      29.68R
$$

CAZ031-033-041-043-047-048-061-200400-
SOUTHERN CALIFORNIA

CITY           SKY/WX    TMP DP  RH WIND       PRES   REMARKS
DOWNTOWN L.A.  MOCLDY    70  61  73 VRB3      29.84S
L.A. AIRPORT   MOCLDY    69  61  75 W10       29.86R
SAN DIEGO      PTCLDY    70  59  68 SW6       29.89R
BURBANK        CLEAR     69  60  73 S6        29.85R
ONTARIO        PTCLDY    72  60  66 SW10      29.85R
RIVERSIDE      CLEAR     71  60  68 W6        29.85R
PALM SPRINGS   PTCLDY    91  51  25 NW20G31   29.70R
EL CENTRO NAS  PTCLDY    92  44  19 W18       29.65R
IMPERIAL       CLEAR     92  47  21 W18G25    29.64R
BLYTHE         CLEAR     99  44  15 SW12      29.65R
NEEDLES        CLEAR     86  59  39 S5        29.71R
$$

NVZ020-UTZ003-200400-
SOUTHERN NEVADA-UTAH

CITY           SKY/WX    TMP DP  RH WIND       PRES   REMARKS
LAS VEGAS      PTCLDY    84  55  36 E9        29.72R
SALT LAKE CITY MOCLDY    70  55  59 SE9       29.87S
$$

NMZ009-TXZ055-200400-
NEW MEXICO-WEST TEXAS

CITY           SKY/WX    TMP DP  RH WIND       PRES   REMARKS
ALBUQUERQUE    CLOUDY    74  51  44 VRB6      30.03R
EL PASO        CLOUDY    78  56  46 SW5       29.95R
$$


........................KEY........................
SKY/WX - SKY CONDITION/WEATHER
TMP    - TEMPERATURE IN FAHRENHEIT
DP     - DEW POINT IN FAHRENHEIT
RH     - RELATIVE HUMIDITY IN PERCENT
WIND   - DIRECTION AND SPEED IN MILES PER HOUR (MPH)
VRB    - VARIABLE WIND DIRECTION
PRES   - MEAN SEA LEVEL PRESSURE IN INCHES OF MERCURY
         F - FALLING PRESSURE   R - RISING PRESSURE
         S - STEADY PRESSURE
VSB    - VISIBILITY IN MILES
HX     - HEAT INDEX IN FAHRENHEIT
WCI    - WIND CHILL INDEX IN FAHRENHEIT
TC     - TEMPERATURE IN CELSIUS WHICH IS ALSO KNOWN AS
         TEMPERATURE IN CENTIGRADE
AFB    - AIR FORCE BASE
         LUKE AFB IS LUKE AIR FORCE BASE
         DAVIS-MONTHAN IS DAVIS-MONTHAN AIR FORCE BASE
NAS    - NAVAL AIR STATION
         EL CENTRO NAS IS EL CENTRO NAVAL AIR STATION
N/A    - NOT AVAILABLE


USA.gov is the U.S. government's official web portal to all federal, state and local government web resources and services.